Location: Piolenc
(44.1794°N, 4.7641°E)
Time: 20:05:29
(UTC+00:00)

Daily predictions for brighter satellites

Satellite Brightness Start Highest point End
(mag) Time Altitude Azimuth Time Altitude Azimuth Time Altitude Azimuth
ATLAS 3B R/B 2.8 19:14:12 10° SSW 19:20:31 52° ESE 19:27:14 10° NE
Cosmos 1339 Rocket 4.4 19:22:44 10° S 19:28:45 70° E 19:34:51 10° NNE
Ariane Rocket 4.2 19:24:52 10° ESE 19:28:59 26° ENE 19:33:07 10° N
USA 306 4.4 19:29:58 10° SSE 19:32:30 16° SE 19:35:03 10° E
Okean O Rocket 4.2 19:32:18 10° SW 19:35:42 21° W 19:39:06 10° NW
H-2A R/B 3.0 19:33:23 10° NE 19:37:11 29° E 19:40:54 10° SSE
Cosmos 2227 Rocket 4.0 19:37:17 10° WSW 19:42:30 37° NW 19:47:45 10° NNE
Cosmos 921 Rocket 3.8 19:46:32 10° SSE 19:50:14 30° E 19:53:55 10° NE
Cosmos 1340 3.1 19:47:42 10° N 19:51:17 42° ENE 19:54:18 13° SE
Resurs 1-3 3.9 19:47:17 10° S 19:51:39 70° WSW 19:56:02 10° NNW
Cosmos 1943 3.7 19:46:26 10° NNW 19:51:49 44° ENE 19:56:23 14° SE
GP-B 3.4 19:49:16 10° N 19:53:42 73° W 19:58:07 10° S
Cosmos 1076 Rocket 3.7 19:50:27 10° SSW 19:54:42 75° W 19:58:58 10° N
Cosmos 1607 4.5 19:49:38 10° NW 19:55:39 57° WSW 20:01:41 10° SSE
Cosmos 2151 3.0 19:53:27 10° S 19:57:42 88° W 20:01:57 10° N
NOSS 2-3 (D) 4.3 19:55:37 10° S 19:58:47 25° ESE 20:02:13 10° ENE
Cosmos 332 Rocket 3.8 19:56:03 10° NNW 20:00:59 84° ENE 20:05:29 12° SSE
NOSS 2-3 (C) 4.2 19:58:42 10° S 20:02:03 28° ESE 20:05:42 10° NE
SPOT 5 4.3 19:59:11 14° ESE 20:02:03 23° ENE 20:05:55 10° NNE
CARTOSAT-1 4.3 20:00:01 16° SE 20:02:59 37° ENE 20:06:56 10° N
MOS 1 4.3 19:58:14 10° SSE 20:03:54 79° ENE 20:09:35 10° NNW
SPOT 3 Rocket 4.4 20:00:22 15° SE 20:04:03 35° ENE 20:08:45 10° N
Cosmos 1812 2.8 20:02:40 10° N 20:06:29 78° W 20:10:16 10° S
Cosmos 371 Rocket 4.5 20:03:22 10° NW 20:07:57 42° WSW 20:12:30 10° S
NOSS 3-1 (C) 3.8 20:06:11 10° S 20:10:34 30° ESE 20:15:32 10° NE
Cosmos 1153 Rocket 4.5 20:05:45 10° N 20:11:54 69° E 20:17:31 12° SSE
SL-16 R/B 3.5 20:07:19 10° NW 20:12:29 37° WSW 20:17:37 10° S
Cosmos 1605 Rocket 4.2 20:06:58 10° NNW 20:13:10 74° W 20:19:15 10° S
CZ-4B R/B 1.6 20:14:24 10° NNE 20:17:24 42° E 20:18:44 26° SSE
Cosmos 1459 Rocket 4.4 20:11:47 10° N 20:17:44 44° ENE 20:21:49 20° SE
ERS-1 Rocket 4.1 20:15:33 18° ESE 20:18:07 28° ENE 20:22:20 10° N
PSLV R/B 3.8 20:14:45 10° NNE 20:18:56 80° ESE 20:23:03 10° S
SPOT 1/Viking Rocket 3.6 20:14:19 11° SSE 20:19:17 87° WSW 20:24:33 10° NNW
NOSS 5 (C) 4.4 20:16:50 10° NNW 20:19:53 61° NE 20:21:24 29° ESE
CZ-2C R/B 3.5 20:19:36 10° SW 20:21:11 12° SSW 20:22:25 11° S
Cosmos 1727 Rocket 3.9 20:16:29 10° S 20:22:38 78° E 20:28:49 10° N
USA 305 3.1 20:20:28 10° SSW 20:24:23 43° SE 20:28:19 10° ENE
Genesis I 3.8 20:21:37 10° S 20:25:19 37° ESE 20:29:05 10° NE
USA 307 3.3 20:21:40 10° SSW 20:25:27 36° SE 20:29:15 10° ENE
Resurs 01 Rocket 2.0 20:22:13 11° S 20:26:23 63° WSW 20:30:47 10° NNW
Cosmos 2263 Rocket 2.8 20:26:27 10° SW 20:31:55 58° WNW 20:37:25 10° NNE
Helios 1A Rocket 4.2 20:31:58 22° E 20:33:05 26° ENE 20:36:28 10° N
Terra 2.9 20:32:22 23° ESE 20:34:09 29° ENE 20:38:15 10° N
Cosmos 1844 Rocket 3.3 20:35:26 25° SE 20:37:37 34° ESE 20:42:36 10° NE
USA 234 3.5 20:32:09 10° ENE 20:38:17 42° SE 20:44:25 10° SSW
Cosmos 2100 Rocket 4.0 20:32:06 10° N 20:38:19 69° E 20:42:16 23° SSE
Cosmos 783 Rocket 4.4 20:35:46 10° SSW 20:40:59 78° ESE 20:46:17 10° NNE
Meteor 1-27 Rocket 4.1 20:39:16 10° N 20:44:40 47° ENE 20:47:02 30° SE
Cosmos 1603 3.7 20:40:33 10° NNW 20:46:17 84° WSW 20:49:25 28° SSE
NOSS 2-3 (E) 3.2 20:43:12 10° SSW 20:47:04 83° SE 20:51:29 10° NE
Cosmos 158 Rocket 4.0 20:43:57 15° S 20:48:17 62° ESE 20:53:37 10° NNE
ARIANE 5 R/B 3.9 20:47:29 23° E 20:48:19 25° ENE 20:51:53 10° NNE
Cosmos 1356 Rocket 3.5 20:44:48 14° SSW 20:48:19 76° W 20:52:35 10° N
NOSS 3-1 (A) 3.7 20:48:46 31° ESE 20:49:01 31° ESE 20:54:03 10° NE
ATLAS 5 CENTAUR R/B 2.3 20:49:33 10° NW 20:55:01 77° NE 20:58:03 33° SE
USA 308 2.7 20:53:48 10° SW 20:57:54 65° SE 21:02:00 10° ENE
ASTEX 1 4.1 20:53:39 10° N 20:58:24 52° WNW 21:03:07 10° SSW
Cosmos 1400 Rocket 2.7 20:59:27 49° SSE 21:00:22 68° E 21:04:26 10° NNE
Cosmos 1151 Rocket 3.3 20:59:43 10° NNW 21:03:58 63° W 21:05:42 34° SSW
Cosmos 292 Rocket 3.8 20:59:51 10° NNW 21:04:43 72° ENE 21:06:06 46° SE
CZ-4C R/B 1.9 21:00:19 10° SW 21:04:59 83° NW 21:10:45 10° NE
Cosmos 1766 Rocket 3.5 21:03:18 34° S 21:05:11 87° W 21:09:37 10° N
Cosmos 1538 Rocket 4.1 21:04:54 42° SSE 21:06:10 52° ESE 21:11:12 10° NNE
Ariane Rocket 4.0 21:04:16 18° SSW 21:07:43 42° W 21:12:31 10° NNW
ATLAS 3B R/B 4.1 21:05:10 10° WSW 21:11:26 40° NW 21:18:05 10° NNE
USA 306 2.7 21:07:18 10° SW 21:11:26 84° NNW 21:15:34 10° NE
H-2A R/B 4.1 21:09:18 10° N 21:13:03 28° WNW 21:16:42 10° SW
CZ-2C R/B 3.7 21:09:34 10° NNE 21:14:01 60° ESE 21:14:31 56° SE
IRAS Rocket 4.4 21:14:15 10° NNE 21:19:44 72° WNW 21:23:59 17° SSW
SL-08 R/B 4.4 21:14:07 10° N 21:20:16 75° E 21:22:22 43° SSE
Cosmos 1441 Rocket 4.3 21:17:09 10° N 21:20:00 31° NE 21:20:00 31° NE
Cosmos 2233 Rocket 4.2 21:15:08 10° N 21:21:18 55° ENE 21:23:05 42° SE
Meteor 1-20 Rocket 4.1 21:20:58 46° SSE 21:22:31 67° E 21:28:06 10° NNE
USA 245 4.4 21:25:10 25° W 21:25:10 25° W 21:27:27 10° NW
SL-23 DEB 3.8 21:23:57 10° WNW 21:27:41 64° W 21:27:41 64° W
Cosmos 1833 Rocket 4.4 21:25:11 10° N 21:29:22 21° NE 21:31:27 17° ENE
Cosmos 1328 Rocket 4.0 21:25:55 10° NNW 21:30:08 54° W 21:31:00 45° SW
Cosmos 2061 Rocket 3.9 21:27:10 10° N 21:33:30 87° W 21:35:40 44° S
Spot 2 Rocket 4.0 21:33:47 38° SSW 21:35:25 54° W 21:40:25 10° NNW
Cosmos 1500 Rocket 4.0 21:37:58 47° ENE 21:37:58 47° ENE 21:41:35 10° NNE
BREEZE-M DEB (TANK) 3.8 21:35:10 10° WNW 21:37:20 34° N 21:41:26 10° ENE
SPOT 5 3.6 21:38:24 36° SW 21:39:46 46° W 21:44:35 10° NNW
Cosmos 1844 3.6 21:38:26 35° SSW 21:41:02 89° WNW 21:46:50 10° NNE
Cosmos 1666 3.9 21:44:17 34° NNE 21:44:17 34° NNE 21:46:35 10° NNE
Cosmos 1602 4.1 21:45:11 61° WNW 21:45:11 61° WNW 21:48:51 10° N
Cosmos 2278 Rocket 4.1 21:56:18 16° ENE 21:56:18 16° ENE 21:58:06 10° NE
Meteor 1-18 Rocket 4.3 21:48:42 10° N 21:54:33 61° ENE 21:55:12 57° ESE
Cosmos 1315 Rocket 3.7 21:56:20 42° NNE 21:56:20 42° NNE 21:59:06 10° NNE
ERS-1 Rocket 4.0 21:55:32 33° SW 21:56:44 38° W 22:01:25 10° NNW
CRYOSAT 2 4.3 21:58:05 78° ENE 21:58:05 78° ENE 22:02:52 10° N
Cosmos 1500 4.3 22:00:38 42° NW 22:00:38 42° NW 22:03:39 10° N
NOSS 3-1 (C) 4.2 21:56:02 10° WSW 22:01:02 45° NW 22:06:59 10° NNE
Meteor 2-9 4.4 22:01:23 76° ESE 22:01:33 77° E 22:06:59 10° NNE
USA 305 4.1 21:59:57 10° W 22:03:52 39° NNW 22:07:46 10° NE
Cosmos 1346 Rocket 3.8 22:00:26 10° NNW 22:03:47 41° WNW 22:03:47 41° WNW
USA 307 3.9 22:00:55 10° W 22:04:52 44° NNW 22:08:50 10° NE
Helios 1A Rocket 4.4 22:08:05 28° W 22:08:05 28° W 22:11:36 10° NW
Terra 3.0 22:11:15 31° WSW 22:11:48 32° W 22:16:05 10° NNW
USA 229 DEB 3.4 22:10:00 44° SW 22:12:14 89° NW 22:19:02 10° NE
USA 229 3.4 22:10:12 46° SW 22:12:20 90° W 22:19:08 10° NE
ALOS 2 4.3 22:13:58 24° NE 22:13:58 24° NE 22:16:52 10° NNE
Cosmos 2056 Rocket 4.0 22:12:23 10° N 22:17:16 47° ENE 22:17:16 47° ENE
Okean 1 4.5 22:15:12 10° NNW 22:18:09 40° NW 22:18:09 40° NW
Cosmos 2098 Rocket 4.0 22:19:35 63° ESE 22:19:50 63° E 22:26:39 10° NNE
Cosmos 1844 Rocket 3.9 22:16:59 13° WSW 22:21:26 38° NW 22:26:37 10° NNE
USA 234 3.6 22:15:01 10° NE 22:21:30 65° NNW 22:27:56 10° WSW
Cosmos 1513 Rocket 4.5 22:18:04 10° N 22:24:23 68° E 22:24:53 65° ESE
ARIANE 5 R/B 3.9 22:25:01 31° W 22:25:01 31° W 22:28:33 10° NNW
Meteor 2-4 Rocket 3.7 22:19:21 10° N 22:25:21 89° E 22:25:37 82° SSE
Sich 1 3.9 22:26:57 47° N 22:26:57 47° N 22:30:05 10° N
Cosmos 44 4.0 22:22:04 10° NNW 22:25:35 44° NNE 22:25:35 44° NNE
Cosmos 1805 Rocket 4.5 22:36:42 46° NNW 22:36:42 46° NNW 22:40:05 10° N
ATLAS 5 CENTAUR R/B 4.0 22:34:59 10° WNW 22:39:21 22° WSW 22:39:29 22° WSW
NOSS 3-1 (A) 4.2 22:36:05 20° WSW 22:39:33 45° NW 22:45:32 10° NNE
COSMOS 2406 4.1 22:35:46 10° NNW 22:41:01 37° NE 22:41:33 36° ENE
Cosmos 1680 Rocket 3.9 22:51:27 58° WNW 22:51:27 58° WNW 22:56:29 10° NNE
Cosmos 2228 Rocket 4.2 22:48:16 10° NNW 22:51:42 41° NW 22:51:42 41° NW
Meteor 1-11 Rocket 4.0 23:10:48 60° NE 23:10:48 60° NE 23:15:27 10° NNE
Cosmos 1833 Rocket 2.9 23:08:16 10° NNW 23:13:07 63° NW 23:13:07 63° NW
Cosmos 1452 Rocket 4.2 23:09:47 10° N 23:14:22 47° NE 23:14:22 47° NE
ADEOS Rocket 3.4 23:16:22 65° SW 23:17:08 69° WSW 23:24:09 10° NNW
Meteor 1-13 Rocket 4.3 23:13:16 10° N 23:18:37 75° N 23:18:37 75° N
Cosmos 1633 Rocket 4.5 23:23:25 36° NNW 23:23:25 36° NNW 23:26:16 10° N
Cosmos 2082 Rocket 2.6 23:18:00 10° NNW 23:23:16 56° NE 23:23:16 56° NE
Cosmos 2278 Rocket 2.5 23:38:07 64° NW 23:38:07 64° NW 23:43:23 10° NNE
Cosmos 1634 Rocket 4.0 23:37:25 10° N 23:43:36 78° ENE 23:43:36 78° ENE
Meteor 2-15 Rocket 4.4 23:38:26 10° N 23:44:14 74° NE 23:44:14 74° NE
CENTAUR R/B 3.8 23:37:58 10° NNW 23:45:51 53° NE 23:51:45 22° ESE
Meteor 2-15 4.4 23:42:08 10° N 23:47:46 74° NW 23:47:46 74° NW
